Time,TemperatureF,DewpointF,PressureIn,WindDirection,WindDirectionDegrees,WindSpeedMPH,WindSpeedGustMPH,Humidity,HourlyPrecipIn,Conditions,Clouds,dailyrainin,SoftwareType,DateUTC
2013-03-11 00:00:00,51.6,49.4,30.24,ESE,108,6.0,10.0,92,0.00,,---,0.00,VWS V14.01,2013-03-11 04:00:00,
2013-03-11 00:06:00,51.6,49.4,30.25,ENE,75,5.0,10.0,92,0.00,,---,0.00,VWS V14.01,2013-03-11 04:06:00,
2013-03-11 00:11:00,51.6,49.4,30.25,East,89,7.0,10.0,92,0.00,,---,0.00,VWS V14.01,2013-03-11 04:11:00,
2013-03-11 00:16:00,51.5,49.3,30.25,East,82,5.0,10.0,92,0.00,,---,0.00,VWS V14.01,2013-03-11 04:16:00,
2013-03-11 00:21:00,51.5,49.3,30.25,East,86,4.0,10.0,92,0.00,,---,0.00,VWS V14.01,2013-03-11 04:21:00,
2013-03-11 00:26:00,51.4,49.2,30.25,ENE,66,4.0,10.0,92,0.00,,---,0.00,VWS V14.01,2013-03-11 04:26:00,
2013-03-11 00:31:00,51.4,49.2,30.25,ENE,77,4.0,6.0,92,0.00,,---,0.00,VWS V14.01,2013-03-11 04:31:00,
2013-03-11 00:36:00,51.4,49.2,30.24,East,97,6.0,6.0,92,0.00,,---,0.00,VWS V14.01,2013-03-11 04:36:00,
2013-03-11 00:41:00,51.2,49.2,30.24,East,89,6.0,6.0,93,0.00,,---,0.00,VWS V14.01,2013-03-11 04:41:00,
2013-03-11 00:46:00,51.2,49.2,30.24,East,86,4.0,9.0,93,0.00,,---,0.00,VWS V14.01,2013-03-11 04:46:00,
2013-03-11 00:51:00,51.1,49.2,30.24,East,92,6.0,9.0,93,0.00,,---,0.00,VWS V14.01,2013-03-11 04:51:00,
2013-03-11 00:56:00,51.0,48.8,30.23,East,88,5.0,10.0,92,0.00,,---,0.00,VWS V14.01,2013-03-11 04:56:00,
2013-03-11 01:01:00,50.9,49.0,30.22,East,92,5.0,8.0,93,0.00,,---,0.00,VWS V14.01,2013-03-11 05:01:00,
2013-03-11 01:07:00,51.0,49.0,30.22,East,93,6.0,10.0,93,0.00,,---,0.00,VWS V14.01,2013-03-11 05:07:00,
2013-03-11 01:12:00,51.1,49.2,30.23,East,87,4.0,11.0,93,0.00,,---,0.00,VWS V14.01,2013-03-11 05:12:00,
2013-03-11 01:17:00,51.0,49.0,30.23,East,81,4.0,11.0,93,0.00,,---,0.00,VWS V14.01,2013-03-11 05:17:00,
2013-03-11 01:22:00,51.0,49.0,30.23,East,84,5.0,11.0,93,0.00,,---,0.00,VWS V14.01,2013-03-11 05:22:00,
2013-03-11 01:27:00,50.9,49.0,30.23,East,79,6.0,11.0,93,0.00,,---,0.00,VWS V14.01,2013-03-11 05:27:00,
2013-03-11 01:32:00,50.9,49.0,30.23,East,90,5.0,8.0,93,0.00,,---,0.00,VWS V14.01,2013-03-11 05:32:00,
2013-03-11 01:37:00,50.8,48.8,30.23,East,82,5.0,8.0,93,0.00,,---,0.00,VWS V14.01,2013-03-11 05:37:00,
2013-03-11 01:42:00,50.8,48.8,30.23,East,82,9.0,10.0,93,0.00,,---,0.00,VWS V14.01,2013-03-11 05:42:00,
2013-03-11 01:48:00,50.8,48.8,30.23,East,88,6.0,11.0,93,0.00,,---,0.00,VWS V14.01,2013-03-11 05:48:00,
2013-03-11 01:53:00,50.9,49.0,30.23,East,86,6.0,11.0,93,0.00,,---,0.00,VWS V14.01,2013-03-11 05:53:00,
2013-03-11 01:58:00,50.8,48.8,30.23,East,90,4.0,6.0,93,0.00,,---,0.00,VWS V14.01,2013-03-11 05:58:00,
2013-03-11 02:03:00,50.7,48.8,30.22,East,82,5.0,9.0,93,0.00,,---,0.00,VWS V14.01,2013-03-11 06:03:00,
2013-03-11 02:08:00,50.5,48.6,30.22,East,80,4.0,9.0,93,0.00,,---,0.00,VWS V14.01,2013-03-11 06:08:00,
2013-03-11 02:13:00,50.4,48.5,30.22,East,88,5.0,10.0,93,0.00,,---,0.00,VWS V14.01,2013-03-11 06:13:00,
2013-03-11 02:18:00,50.3,48.4,30.22,East,92,5.0,10.0,93,0.00,,---,0.00,VWS V14.01,2013-03-11 06:18:00,
2013-03-11 02:23:00,50.2,48.3,30.22,East,86,5.0,10.0,93,0.00,,---,0.00,VWS V14.01,2013-03-11 06:23:00,
2013-03-11 02:28:00,50.1,48.2,30.22,ESE,107,6.0,7.0,93,0.00,,---,0.00,VWS V14.01,2013-03-11 06:28:00,
2013-03-11 02:33:00,50.1,48.4,30.21,ESE,105,10.0,10.0,94,0.00,,---,0.00,VWS V14.01,2013-03-11 06:33:00,
2013-03-11 02:38:00,50.1,48.2,30.21,East,101,10.0,10.0,93,0.00,,---,0.00,VWS V14.01,2013-03-11 06:38:00,
2013-03-11 02:43:00,50.2,48.5,30.21,East,89,4.0,10.0,94,0.00,,---,0.00,VWS V14.01,2013-03-11 06:43:00,
2013-03-11 02:49:00,50.3,48.6,30.21,ENE,69,5.0,10.0,94,0.00,,---,0.00,VWS V14.01,2013-03-11 06:49:00,
2013-03-11 02:54:00,50.2,48.5,30.21,ENE,76,4.0,10.0,94,0.00,,---,0.00,VWS V14.01,2013-03-11 06:54:00,
2013-03-11 02:59:00,50.1,48.4,30.21,East,90,5.0,6.0,94,0.00,,---,0.00,VWS V14.01,2013-03-11 06:59:00,
2013-03-11 03:04:00,49.9,48.2,30.21,East,88,4.0,7.0,94,0.00,,---,0.00,VWS V14.01,2013-03-11 07:04:00,
2013-03-11 03:09:00,49.9,48.2,30.21,East,93,6.0,7.0,94,0.00,,---,0.00,VWS V14.01,2013-03-11 07:09:00,
2013-03-11 03:14:00,49.8,48.2,30.20,East,84,4.0,9.0,94,0.00,,---,0.00,VWS V14.01,2013-03-11 07:14:00,
2013-03-11 03:19:00,49.7,48.0,30.20,East,94,5.0,9.0,94,0.00,,---,0.00,VWS V14.01,2013-03-11 07:19:00,
2013-03-11 03:24:00,49.7,48.0,30.20,East,87,4.0,9.0,94,0.00,,---,0.00,VWS V14.01,2013-03-11 07:24:00,
2013-03-11 03:29:00,49.7,48.0,30.20,East,84,4.0,8.0,94,0.00,,---,0.00,VWS V14.01,2013-03-11 07:29:00,
2013-03-11 03:34:00,49.8,48.2,30.20,East,81,4.0,8.0,94,0.00,,---,0.00,VWS V14.01,2013-03-11 07:34:00,
2013-03-11 03:39:00,49.9,48.2,30.20,East,89,6.0,8.0,94,0.00,,---,0.00,VWS V14.01,2013-03-11 07:39:00,
2013-03-11 03:44:00,49.9,48.2,30.20,ENE,77,4.0,8.0,94,0.00,,---,0.00,VWS V14.01,2013-03-11 07:44:00,
2013-03-11 03:50:00,49.9,48.2,30.20,ENE,74,5.0,8.0,94,0.00,,---,0.00,VWS V14.01,2013-03-11 07:50:00,
2013-03-11 03:55:00,49.9,48.2,30.19,East,89,6.0,9.0,94,0.00,,---,0.00,VWS V14.01,2013-03-11 07:55:00,
2013-03-11 04:00:00,49.8,48.2,30.19,ENE,78,4.0,9.0,94,0.00,,---,0.00,VWS V14.01,2013-03-11 08:00:00,
2013-03-11 04:05:00,49.7,48.0,30.20,East,79,5.0,9.0,94,0.00,,---,0.00,VWS V14.01,2013-03-11 08:05:00,
2013-03-11 04:10:00,49.7,48.0,30.19,East,95,6.0,9.0,94,0.00,,---,0.00,VWS V14.01,2013-03-11 08:10:00,
2013-03-11 04:15:00,49.7,48.0,30.19,East,101,5.0,9.0,94,0.00,,---,0.00,VWS V14.01,2013-03-11 08:15:00,
2013-03-11 04:20:00,49.7,48.0,30.19,East,96,5.0,9.0,94,0.00,,---,0.00,VWS V14.01,2013-03-11 08:20:00,
2013-03-11 04:25:00,49.8,48.2,30.19,East,94,10.0,12.0,94,0.00,,---,0.00,VWS V14.01,2013-03-11 08:25:00,
2013-03-11 04:30:00,50.0,48.6,30.19,East,94,7.0,8.0,95,0.00,,---,0.00,VWS V14.01,2013-03-11 08:30:00,
2013-03-11 04:35:00,50.1,48.7,30.18,East,90,5.0,8.0,95,0.00,,---,0.00,VWS V14.01,2013-03-11 08:35:00,
2013-03-11 04:40:00,50.1,48.4,30.18,East,87,6.0,10.0,94,0.00,,---,0.00,VWS V14.01,2013-03-11 08:40:00,
2013-03-11 04:45:00,50.2,48.5,30.18,ENE,74,4.0,11.0,94,0.00,,---,0.00,VWS V14.01,2013-03-11 08:45:00,
2013-03-11 04:50:00,50.2,48.5,30.18,ESE,106,5.0,11.0,94,0.00,,---,0.00,VWS V14.01,2013-03-11 08:50:00,
2013-03-11 04:55:00,50.2,48.5,30.18,ESE,104,9.0,12.0,94,0.00,,---,0.00,VWS V14.01,2013-03-11 08:55:00,
2013-03-11 05:00:00,50.3,48.9,30.18,East,99,7.0,11.0,95,0.00,,---,0.00,VWS V14.01,2013-03-11 09:00:00,
2013-03-11 05:05:00,50.5,49.1,30.17,East,96,9.0,13.0,95,0.00,,---,0.00,VWS V14.01,2013-03-11 09:05:00,
2013-03-11 05:11:00,50.5,49.1,30.17,East,97,12.0,13.0,95,0.00,,---,0.00,VWS V14.01,2013-03-11 09:11:00,
2013-03-11 05:16:00,50.5,49.1,30.17,ESE,104,11.0,14.0,95,0.00,,---,0.00,VWS V14.01,2013-03-11 09:16:00,
2013-03-11 05:21:00,50.6,49.2,30.17,ENE,76,9.0,14.0,95,0.00,,---,0.00,VWS V14.01,2013-03-11 09:21:00,
2013-03-11 05:26:00,50.7,49.3,30.17,ESE,105,6.0,14.0,95,0.00,,---,0.00,VWS V14.01,2013-03-11 09:26:00,
2013-03-11 05:31:00,50.8,49.4,30.17,ESE,109,6.0,12.0,95,0.00,,---,0.00,VWS V14.01,2013-03-11 09:31:00,
2013-03-11 05:36:00,50.9,49.5,30.17,ESE,119,13.0,13.0,95,0.00,,---,0.00,VWS V14.01,2013-03-11 09:36:00,
2013-03-11 05:41:00,51.0,49.6,30.17,East,96,17.0,18.0,95,0.00,,---,0.00,VWS V14.01,2013-03-11 09:41:00,
2013-03-11 05:47:00,51.0,49.6,30.16,ESE,105,9.0,18.0,95,0.00,,---,0.00,VWS V14.01,2013-03-11 09:47:00,
2013-03-11 05:52:00,51.1,49.7,30.17,East,88,9.0,18.0,95,0.00,,---,0.00,VWS V14.01,2013-03-11 09:52:00,
2013-03-11 05:57:00,51.2,49.8,30.17,ESE,103,12.0,18.0,95,0.00,,---,0.00,VWS V14.01,2013-03-11 09:57:00,
2013-03-11 06:02:00,51.2,49.8,30.16,ESE,104,11.0,12.0,95,0.00,,---,0.00,VWS V14.01,2013-03-11 10:02:00,
2013-03-11 06:07:00,51.2,49.8,30.16,ESE,105,7.0,13.0,95,0.00,,---,0.00,VWS V14.01,2013-03-11 10:07:00,
2013-03-11 06:12:00,51.3,49.9,30.16,East,92,7.0,15.0,95,0.00,,---,0.00,VWS V14.01,2013-03-11 10:12:00,
2013-03-11 06:17:00,51.3,49.9,30.17,ESE,112,5.0,17.0,95,0.00,,---,0.00,VWS V14.01,2013-03-11 10:17:00,
2013-03-11 06:22:00,51.4,50.0,30.17,East,96,9.0,17.0,95,0.00,,---,0.00,VWS V14.01,2013-03-11 10:22:00,
2013-03-11 06:27:00,51.4,50.0,30.18,East,96,6.0,17.0,95,0.00,,---,0.00,VWS V14.01,2013-03-11 10:27:00,
2013-03-11 06:32:00,51.5,50.1,30.18,East,98,8.0,12.0,95,0.00,,---,0.00,VWS V14.01,2013-03-11 10:32:00,
2013-03-11 06:37:00,51.5,50.1,30.18,ESE,103,3.0,12.0,95,0.00,,---,0.00,VWS V14.01,2013-03-11 10:37:00,
2013-03-11 06:42:00,51.6,50.2,30.18,East,90,6.0,12.0,95,0.00,,---,0.00,VWS V14.01,2013-03-11 10:42:00,
2013-03-11 06:47:00,51.7,50.3,30.18,East,82,5.0,12.0,95,0.00,,---,0.00,VWS V14.01,2013-03-11 10:47:00,
2013-03-11 06:52:00,51.8,50.4,30.19,ESE,109,2.0,12.0,95,0.00,,---,0.00,VWS V14.01,2013-03-11 10:52:00,
2013-03-11 06:57:00,51.8,50.4,30.19,ENE,71,4.0,12.0,95,0.00,,---,0.00,VWS V14.01,2013-03-11 10:57:00,
2013-03-11 07:02:00,51.8,50.4,30.19,ESE,105,2.0,5.0,95,0.00,,---,0.00,VWS V14.01,2013-03-11 11:02:00,
2013-03-11 07:07:00,51.8,50.4,30.18,East,92,5.0,6.0,95,0.00,,---,0.00,VWS V14.01,2013-03-11 11:07:00,
2013-03-11 07:12:00,51.8,50.4,30.18,East,88,4.0,7.0,95,0.00,,---,0.00,VWS V14.01,2013-03-11 11:12:00,
2013-03-11 07:17:00,51.7,50.3,30.18,East,90,6.0,7.0,95,0.00,,---,0.00,VWS V14.01,2013-03-11 11:17:00,
2013-03-11 07:22:00,51.7,50.3,30.17,East,101,7.0,9.0,95,0.00,,---,0.00,VWS V14.01,2013-03-11 11:22:00,
2013-03-11 07:27:00,51.7,50.0,30.17,East,85,6.0,9.0,94,0.00,,---,0.00,VWS V14.01,2013-03-11 11:27:00,
2013-03-11 07:32:00,51.7,50.3,30.17,East,100,5.0,10.0,95,0.00,,---,0.00,VWS V14.01,2013-03-11 11:32:00,
2013-03-11 07:38:00,51.7,50.3,30.17,ESE,115,9.0,11.0,95,0.00,,---,0.00,VWS V14.01,2013-03-11 11:38:00,
2013-03-11 07:43:00,51.8,50.4,30.18,East,95,9.0,11.0,95,0.00,,---,0.00,VWS V14.01,2013-03-11 11:43:00,
2013-03-11 07:48:00,51.8,50.4,30.18,East,99,4.0,11.0,95,0.00,,---,0.00,VWS V14.01,2013-03-11 11:48:00,
2013-03-11 07:53:00,51.8,50.4,30.18,East,98,5.0,11.0,95,0.00,,---,0.00,VWS V14.01,2013-03-11 11:53:00,
2013-03-11 07:58:00,51.8,50.4,30.18,East,99,4.0,6.0,95,0.00,,---,0.00,VWS V14.01,2013-03-11 11:58:00,
2013-03-11 08:03:00,51.9,50.5,30.18,ESE,110,6.0,10.0,95,0.00,,---,0.00,VWS V14.01,2013-03-11 12:03:00,
2013-03-11 08:08:00,51.9,50.5,30.18,East,92,7.0,10.0,95,0.00,,---,0.00,VWS V14.01,2013-03-11 12:08:00,
2013-03-11 08:13:00,52.0,50.6,30.18,East,84,4.0,12.0,95,0.00,,---,0.00,VWS V14.01,2013-03-11 12:13:00,
2013-03-11 08:18:00,52.0,50.6,30.17,East,94,7.0,12.0,95,0.00,,---,0.00,VWS V14.01,2013-03-11 12:18:00,
2013-03-11 08:23:00,52.1,50.7,30.17,East,92,4.0,12.0,95,0.00,,---,0.00,VWS V14.01,2013-03-11 12:23:00,
2013-03-11 08:28:00,52.2,50.8,30.17,East,97,5.0,11.0,95,0.00,,---,0.00,VWS V14.01,2013-03-11 12:28:00,
2013-03-11 08:33:00,52.3,50.9,30.17,East,92,2.0,11.0,95,0.00,,---,0.00,VWS V14.01,2013-03-11 12:33:00,
2013-03-11 08:38:00,52.4,51.0,30.17,East,99,6.0,11.0,95,0.00,,---,0.00,VWS V14.01,2013-03-11 12:38:00,
2013-03-11 08:43:00,52.4,51.0,30.18,ESE,109,4.0,12.0,95,0.00,,---,0.00,VWS V14.01,2013-03-11 12:43:00,
2013-03-11 08:48:00,52.5,51.1,30.18,East,85,6.0,12.0,95,0.00,,---,0.00,VWS V14.01,2013-03-11 12:48:00,
2013-03-11 08:54:00,52.6,51.2,30.18,ENE,78,10.0,12.0,95,0.00,,---,0.00,VWS V14.01,2013-03-11 12:54:00,
2013-03-11 08:59:00,52.7,51.0,30.18,ENE,78,9.0,10.0,94,0.00,,---,0.00,VWS V14.01,2013-03-11 12:59:00,
2013-03-11 09:04:00,52.8,51.1,30.17,East,93,9.0,13.0,94,0.00,,---,0.00,VWS V14.01,2013-03-11 13:04:00,
2013-03-11 09:09:00,53.1,51.7,30.17,East,100,7.0,13.0,95,0.00,,---,0.00,VWS V14.01,2013-03-11 13:09:00,
2013-03-11 09:14:00,53.2,51.5,30.18,East,90,5.0,13.0,94,0.00,,---,0.00,VWS V14.01,2013-03-11 13:14:00,
2013-03-11 09:19:00,53.3,51.6,30.18,East,96,6.0,13.0,94,0.00,,---,0.00,VWS V14.01,2013-03-11 13:19:00,
2013-03-11 09:24:00,53.6,51.9,30.18,ENE,73,6.0,13.0,94,0.00,,---,0.00,VWS V14.01,2013-03-11 13:24:00,
2013-03-11 09:29:00,53.5,51.8,30.18,ESE,106,10.0,13.0,94,0.00,,---,0.00,VWS V14.01,2013-03-11 13:29:00,
2013-03-11 09:34:00,53.5,51.8,30.17,SE,130,7.0,15.0,94,0.00,,---,0.00,VWS V14.01,2013-03-11 13:34:00,
2013-03-11 09:39:00,53.6,51.9,30.17,East,98,8.0,15.0,94,0.00,,---,0.00,VWS V14.01,2013-03-11 13:39:00,
2013-03-11 09:44:00,53.7,52.0,30.17,ESE,110,10.0,15.0,94,0.00,,---,0.00,VWS V14.01,2013-03-11 13:44:00,
2013-03-11 09:49:00,53.9,52.2,30.17,East,99,5.0,15.0,94,0.00,,---,0.00,VWS V14.01,2013-03-11 13:49:00,
2013-03-11 09:54:00,54.0,52.0,30.17,ENE,71,7.0,15.0,93,0.00,,---,0.00,VWS V14.01,2013-03-11 13:54:00,
2013-03-11 09:59:00,53.9,51.9,30.17,ESE,108,7.0,11.0,93,0.00,,---,0.00,VWS V14.01,2013-03-11 13:59:00,
2013-03-11 10:05:00,54.0,52.0,30.17,SE,124,10.0,11.0,93,0.00,,---,0.00,VWS V14.01,2013-03-11 14:05:00,
2013-03-11 10:10:00,54.0,52.0,30.17,East,92,11.0,13.0,93,0.00,,---,0.00,VWS V14.01,2013-03-11 14:10:00,
2013-03-11 10:15:00,54.0,52.0,30.17,East,82,6.0,13.0,93,0.00,,---,0.00,VWS V14.01,2013-03-11 14:15:00,
2013-03-11 10:20:00,54.1,52.1,30.17,East,94,9.0,13.0,93,0.00,,---,0.00,VWS V14.01,2013-03-11 14:20:00,
2013-03-11 10:25:00,54.2,52.2,30.17,East,82,5.0,13.0,93,0.00,,---,0.00,VWS V14.01,2013-03-11 14:25:00,
2013-03-11 10:30:00,54.3,52.3,30.17,ESE,109,10.0,14.0,93,0.00,,---,0.00,VWS V14.01,2013-03-11 14:30:00,
2013-03-11 10:35:00,54.4,52.4,30.17,East,101,9.0,15.0,93,0.00,,---,0.00,VWS V14.01,2013-03-11 14:35:00,
2013-03-11 10:40:00,54.6,52.6,30.16,ESE,106,13.0,15.0,93,0.00,,---,0.00,VWS V14.01,2013-03-11 14:40:00,
2013-03-11 10:45:00,55.0,53.0,30.16,East,82,9.0,15.0,93,0.00,,---,0.00,VWS V14.01,2013-03-11 14:45:00,
2013-03-11 10:50:00,55.1,53.1,30.16,East,85,7.0,16.0,93,0.00,,---,0.00,VWS V14.01,2013-03-11 14:50:00,
2013-03-11 10:55:00,55.1,52.8,30.16,ENE,74,8.0,16.0,92,0.00,,---,0.00,VWS V14.01,2013-03-11 14:55:00,
2013-03-11 11:00:00,55.3,53.0,30.16,East,82,6.0,13.0,92,0.00,,---,0.00,VWS V14.01,2013-03-11 15:00:00,
2013-03-11 11:06:00,55.4,53.1,30.16,ESE,113,10.0,16.0,92,0.00,,---,0.00,VWS V14.01,2013-03-11 15:06:00,
2013-03-11 11:11:00,55.6,53.3,30.16,East,100,13.0,16.0,92,0.00,,---,0.00,VWS V14.01,2013-03-11 15:11:00,
2013-03-11 11:16:00,55.5,52.9,30.16,ESE,110,10.0,16.0,91,0.00,,---,0.00,VWS V14.01,2013-03-11 15:16:00,
2013-03-11 11:21:00,55.5,52.9,30.16,East,99,10.0,16.0,91,0.00,,---,0.00,VWS V14.01,2013-03-11 15:21:00,
2013-03-11 11:26:00,55.5,52.9,30.15,East,92,10.0,16.0,91,0.00,,---,0.00,VWS V14.01,2013-03-11 15:26:00,
2013-03-11 11:32:00,55.4,52.8,30.15,East,96,12.0,14.0,91,0.00,,---,0.00,VWS V14.01,2013-03-11 15:32:00,
2013-03-11 11:36:00,55.4,52.8,30.14,ESE,116,10.0,15.0,91,0.00,,---,0.00,VWS V14.01,2013-03-11 15:36:00,
2013-03-11 11:42:00,55.5,52.9,30.14,ESE,115,11.0,15.0,91,0.00,,---,0.00,VWS V14.01,2013-03-11 15:42:00,
2013-03-11 11:47:00,55.6,53.0,30.14,East,97,12.0,15.0,91,0.00,,---,0.00,VWS V14.01,2013-03-11 15:47:00,
2013-03-11 11:52:00,55.6,53.0,30.13,East,89,10.0,16.0,91,0.00,,---,0.00,VWS V14.01,2013-03-11 15:52:00,
2013-03-11 11:57:00,55.8,53.2,30.14,ESE,109,13.0,16.0,91,0.00,,---,0.00,VWS V14.01,2013-03-11 15:57:00,
2013-03-11 12:02:00,56.2,53.6,30.14,ESE,116,11.0,16.0,91,0.00,,---,0.00,VWS V14.01,2013-03-11 16:02:00,
2013-03-11 12:07:00,56.5,53.9,30.14,East,99,11.0,16.0,91,0.00,,---,0.00,VWS V14.01,2013-03-11 16:07:00,
2013-03-11 12:12:00,56.7,54.1,30.14,ESE,118,12.0,16.0,91,0.00,,---,0.00,VWS V14.01,2013-03-11 16:12:00,
2013-03-11 12:17:00,56.7,53.8,30.14,ESE,103,10.0,16.0,90,0.00,,---,0.00,VWS V14.01,2013-03-11 16:17:00,
2013-03-11 12:22:00,56.7,53.8,30.14,ESE,107,6.0,16.0,90,0.00,,---,0.00,VWS V14.01,2013-03-11 16:22:00,
2013-03-11 12:27:00,56.5,53.6,30.14,ESE,121,5.0,16.0,90,0.00,,---,0.00,VWS V14.01,2013-03-11 16:27:00,
2013-03-11 12:32:00,56.6,53.7,30.14,ESE,113,6.0,11.0,90,0.00,,---,0.00,VWS V14.01,2013-03-11 16:32:00,
2013-03-11 12:38:00,57.0,54.4,30.14,ESE,118,5.0,11.0,91,0.00,,---,0.00,VWS V14.01,2013-03-11 16:38:00,
2013-03-11 12:43:00,57.6,54.7,30.14,ESE,119,6.0,11.0,90,0.00,,---,0.00,VWS V14.01,2013-03-11 16:43:00,
2013-03-11 12:48:00,57.9,55.0,30.14,SE,137,5.0,11.0,90,0.00,,---,0.00,VWS V14.01,2013-03-11 16:48:00,
2013-03-11 12:53:00,58.2,55.0,30.14,SE,126,4.0,11.0,89,0.00,,---,0.00,VWS V14.01,2013-03-11 16:53:00,
2013-03-11 12:58:00,58.2,54.7,30.14,ESE,104,6.0,10.0,88,0.00,,---,0.00,VWS V14.01,2013-03-11 16:58:00,
2013-03-11 13:03:00,58.3,54.8,30.14,ESE,123,4.0,12.0,88,0.00,,---,0.00,VWS V14.01,2013-03-11 17:03:00,
2013-03-11 13:08:00,58.6,55.1,30.14,ESE,113,7.0,12.0,88,0.00,,---,0.00,VWS V14.01,2013-03-11 17:08:00,
2013-03-11 13:13:00,58.9,55.0,30.14,SE,130,10.0,12.0,87,0.00,,---,0.00,VWS V14.01,2013-03-11 17:13:00,
2013-03-11 13:18:00,59.1,55.2,30.13,SE,145,11.0,13.0,87,0.00,,---,0.00,VWS V14.01,2013-03-11 17:18:00,
2013-03-11 13:23:00,59.5,55.3,30.13,SE,126,12.0,14.0,86,0.00,,---,0.00,VWS V14.01,2013-03-11 17:23:00,
2013-03-11 13:28:00,59.7,55.2,30.13,SE,138,13.0,14.0,85,0.00,,---,0.00,VWS V14.01,2013-03-11 17:28:00,
2013-03-11 13:33:00,59.6,55.1,30.13,ESE,120,7.0,15.0,85,0.00,,---,0.00,VWS V14.01,2013-03-11 17:33:00,
2013-03-11 13:38:00,60.1,55.6,30.13,SSE,149,4.0,15.0,85,0.00,,---,0.00,VWS V14.01,2013-03-11 17:38:00,
2013-03-11 13:43:00,60.2,55.3,30.13,SE,130,10.0,15.0,84,0.00,,---,0.00,VWS V14.01,2013-03-11 17:43:00,
2013-03-11 13:48:00,59.8,54.6,30.12,SE,144,6.0,15.0,83,0.00,,---,0.00,VWS V14.01,2013-03-11 17:48:00,
2013-03-11 13:53:00,59.9,55.1,30.12,SE,125,4.0,15.0,84,0.00,,---,0.00,VWS V14.01,2013-03-11 17:53:00,
2013-03-11 13:59:00,60.1,55.3,30.12,SSE,147,6.0,11.0,84,0.00,,---,0.00,VWS V14.01,2013-03-11 17:59:00,
2013-03-11 14:04:00,60.0,54.8,30.11,SSE,150,11.0,15.0,83,0.00,,---,0.00,VWS V14.01,2013-03-11 18:04:00,
2013-03-11 14:09:00,60.2,55.0,30.11,SE,144,13.0,17.0,83,0.00,,---,0.00,VWS V14.01,2013-03-11 18:09:00,
2013-03-11 14:14:00,60.4,54.9,30.10,SSE,168,9.0,17.0,82,0.00,,---,0.00,VWS V14.01,2013-03-11 18:14:00,
2013-03-11 14:19:00,60.5,55.0,30.10,SSE,150,12.0,17.0,82,0.00,,---,0.00,VWS V14.01,2013-03-11 18:19:00,
2013-03-11 14:24:00,60.7,55.2,30.10,SE,135,12.0,17.0,82,0.00,,---,0.00,VWS V14.01,2013-03-11 18:24:00,
2013-03-11 14:29:00,60.9,55.0,30.10,SSE,167,7.0,14.0,81,0.00,,---,0.00,VWS V14.01,2013-03-11 18:29:00,
2013-03-11 14:34:00,61.0,55.1,30.09,SE,133,13.0,14.0,81,0.00,,---,0.00,VWS V14.01,2013-03-11 18:34:00,
2013-03-11 14:39:00,60.9,55.0,30.09,SSE,157,14.0,17.0,81,0.00,,---,0.00,VWS V14.01,2013-03-11 18:39:00,
2013-03-11 14:44:00,60.8,54.9,30.09,SSE,147,7.0,17.0,81,0.00,,---,0.00,VWS V14.01,2013-03-11 18:44:00,
2013-03-11 14:49:00,60.8,54.9,30.09,SE,135,11.0,17.0,81,0.00,,---,0.00,VWS V14.01,2013-03-11 18:49:00,
2013-03-11 14:54:00,60.9,55.0,30.09,SSE,147,13.0,17.0,81,0.00,,---,0.00,VWS V14.01,2013-03-11 18:54:00,
2013-03-11 14:59:00,60.8,54.9,30.09,SSE,157,10.0,12.0,81,0.00,,---,0.00,VWS V14.01,2013-03-11 18:59:00,
2013-03-11 15:04:00,60.6,54.8,30.08,SE,138,12.0,13.0,81,0.00,,---,0.00,VWS V14.01,2013-03-11 19:04:00,
2013-03-11 15:09:00,60.6,55.1,30.08,SSE,151,10.0,13.0,82,0.00,,---,0.00,VWS V14.01,2013-03-11 19:09:00,
2013-03-11 15:14:00,60.7,55.2,30.08,SSW,193,11.0,13.0,82,0.00,,---,0.00,VWS V14.01,2013-03-11 19:14:00,
2013-03-11 15:19:00,60.7,55.2,30.08,SE,125,7.0,14.0,82,0.00,,---,0.00,VWS V14.01,2013-03-11 19:19:00,
2013-03-11 15:24:00,60.3,54.5,30.08,SE,139,10.0,14.0,81,0.00,,---,0.00,VWS V14.01,2013-03-11 19:24:00,
2013-03-11 15:30:00,60.1,54.6,30.08,SSE,153,5.0,13.0,82,0.00,,---,0.00,VWS V14.01,2013-03-11 19:30:00,
2013-03-11 15:35:00,60.0,54.5,30.07,SE,143,13.0,15.0,82,0.00,,---,0.00,VWS V14.01,2013-03-11 19:35:00,
2013-03-11 15:40:00,59.9,54.4,30.07,South,180,7.0,15.0,82,0.00,,---,0.00,VWS V14.01,2013-03-11 19:40:00,
2013-03-11 15:45:00,60.0,54.5,30.08,SE,136,7.0,15.0,82,0.00,,---,0.00,VWS V14.01,2013-03-11 19:45:00,
2013-03-11 15:50:00,59.9,54.4,30.07,South,182,7.0,15.0,82,0.00,,---,0.00,VWS V14.01,2013-03-11 19:50:00,
2013-03-11 15:55:00,59.8,54.6,30.07,South,169,8.0,15.0,83,0.00,,---,0.00,VWS V14.01,2013-03-11 19:55:00,
2013-03-11 16:00:00,59.9,54.7,30.07,SSE,159,9.0,12.0,83,0.00,,---,0.00,VWS V14.01,2013-03-11 20:00:00,
2013-03-11 16:05:00,59.8,54.6,30.07,South,173,6.0,13.0,83,0.00,,---,0.00,VWS V14.01,2013-03-11 20:05:00,
2013-03-11 16:10:00,59.7,54.5,30.07,South,187,7.0,13.0,83,0.00,,---,0.00,VWS V14.01,2013-03-11 20:10:00,
2013-03-11 16:15:00,59.6,54.4,30.07,SSE,156,10.0,13.0,83,0.00,,---,0.00,VWS V14.01,2013-03-11 20:15:00,
2013-03-11 16:20:00,59.6,54.8,30.07,South,175,5.0,13.0,84,0.00,,---,0.00,VWS V14.01,2013-03-11 20:20:00,
2013-03-11 16:25:00,59.5,54.7,30.06,SE,146,8.0,13.0,84,0.00,,---,0.00,VWS V14.01,2013-03-11 20:25:00,
2013-03-11 16:30:00,59.3,54.5,30.06,South,172,7.0,10.0,84,0.00,,---,0.00,VWS V14.01,2013-03-11 20:30:00,
2013-03-11 16:35:00,59.2,54.7,30.06,SSE,159,6.0,11.0,85,0.00,,---,0.00,VWS V14.01,2013-03-11 20:35:00,
2013-03-11 16:40:00,59.0,54.5,30.06,South,190,6.0,11.0,85,0.00,,---,0.00,VWS V14.01,2013-03-11 20:40:00,
2013-03-11 16:45:00,58.7,54.2,30.06,SSE,165,5.0,12.0,85,0.00,,---,0.00,VWS V14.01,2013-03-11 20:45:00,
2013-03-11 16:51:00,58.4,54.2,30.06,SE,142,5.0,12.0,86,0.00,,---,0.00,VWS V14.01,2013-03-11 20:51:00,
2013-03-11 16:56:00,58.3,54.1,30.05,South,180,5.0,12.0,86,0.00,,---,0.00,VWS V14.01,2013-03-11 20:56:00,
2013-03-11 17:01:00,58.2,54.4,30.05,South,186,5.0,7.0,87,0.00,,---,0.00,VWS V14.01,2013-03-11 21:01:00,
2013-03-11 17:06:00,58.2,54.4,30.05,South,172,4.0,8.0,87,0.00,,---,0.00,VWS V14.01,2013-03-11 21:06:00,
2013-03-11 17:11:00,58.0,54.2,30.05,SE,144,5.0,9.0,87,0.00,,---,0.00,VWS V14.01,2013-03-11 21:11:00,
2013-03-11 17:16:00,58.0,54.2,30.05,South,182,6.0,9.0,87,0.00,,---,0.00,VWS V14.01,2013-03-11 21:16:00,
2013-03-11 17:21:00,58.0,54.5,30.05,South,178,7.0,9.0,88,0.00,,---,0.00,VWS V14.01,2013-03-11 21:21:00,
2013-03-11 17:27:00,58.1,54.6,30.05,South,186,5.0,9.0,88,0.00,,---,0.00,VWS V14.01,2013-03-11 21:27:00,
2013-03-11 17:32:00,58.2,54.7,30.05,SE,134,7.0,9.0,88,0.00,,---,0.00,VWS V14.01,2013-03-11 21:32:00,
2013-03-11 17:37:00,58.1,54.6,30.04,SSE,163,9.0,11.0,88,0.00,,---,0.00,VWS V14.01,2013-03-11 21:37:00,
2013-03-11 17:42:00,58.1,54.6,30.03,SSE,148,7.0,11.0,88,0.00,,---,0.00,VWS V14.01,2013-03-11 21:42:00,
2013-03-11 17:47:00,58.0,54.5,30.03,SSE,161,4.0,12.0,88,0.00,,---,0.00,VWS V14.01,2013-03-11 21:47:00,
2013-03-11 17:52:00,58.0,54.5,30.03,SE,135,3.0,12.0,88,0.00,,---,0.00,VWS V14.01,2013-03-11 21:52:00,
2013-03-11 17:57:00,57.9,54.4,30.04,SE,136,8.0,12.0,88,0.00,,---,0.00,VWS V14.01,2013-03-11 21:57:00,
2013-03-11 18:02:00,57.8,54.3,30.04,South,178,5.0,7.0,88,0.00,,---,0.00,VWS V14.01,2013-03-11 22:02:00,
2013-03-11 18:07:00,57.8,54.3,30.05,SSE,161,5.0,9.0,88,0.00,,---,0.00,VWS V14.01,2013-03-11 22:07:00,
2013-03-11 18:12:00,57.9,54.4,30.05,SE,132,6.0,11.0,88,0.00,,---,0.00,VWS V14.01,2013-03-11 22:12:00,
2013-03-11 18:18:00,57.9,54.4,30.05,SSE,156,4.0,11.0,88,0.00,,---,0.00,VWS V14.01,2013-03-11 22:18:00,
2013-03-11 18:23:00,57.9,54.4,30.05,SE,138,6.0,12.0,88,0.00,,---,0.00,VWS V14.01,2013-03-11 22:23:00,
2013-03-11 18:28:00,57.8,54.3,30.05,SSE,159,5.0,5.0,88,0.00,,---,0.00,VWS V14.01,2013-03-11 22:28:00,
2013-03-11 18:33:00,57.7,54.2,30.05,SSE,167,6.0,9.0,88,0.00,,---,0.00,VWS V14.01,2013-03-11 22:33:00,
2013-03-11 18:38:00,57.5,54.0,30.05,SE,136,4.0,9.0,88,0.00,,---,0.00,VWS V14.01,2013-03-11 22:38:00,
2013-03-11 18:43:00,57.3,53.8,30.05,South,171,6.0,9.0,88,0.00,,---,0.00,VWS V14.01,2013-03-11 22:43:00,
2013-03-11 18:49:00,57.3,54.1,30.05,SSE,167,6.0,9.0,89,0.00,,---,0.00,VWS V14.01,2013-03-11 22:49:00,
2013-03-11 18:54:00,57.2,54.0,30.05,SSE,162,3.0,10.0,89,0.00,,---,0.00,VWS V14.01,2013-03-11 22:54:00,
2013-03-11 18:59:00,57.1,53.9,30.04,SE,140,4.0,7.0,89,0.00,,---,0.00,VWS V14.01,2013-03-11 22:59:00,
2013-03-11 19:04:00,57.0,53.8,30.04,South,178,5.0,7.0,89,0.00,,---,0.00,VWS V14.01,2013-03-11 23:04:00,
2013-03-11 19:09:00,57.0,53.8,30.04,SE,137,4.0,7.0,89,0.00,,---,0.00,VWS V14.01,2013-03-11 23:09:00,
2013-03-11 19:14:00,57.0,53.8,30.04,SSE,165,3.0,7.0,89,0.00,,---,0.00,VWS V14.01,2013-03-11 23:14:00,
2013-03-11 19:19:00,57.0,53.8,30.04,SE,140,4.0,7.0,89,0.00,,---,0.00,VWS V14.01,2013-03-11 23:19:00,
2013-03-11 19:24:00,57.1,54.2,30.04,SE,145,8.0,11.0,90,0.00,,---,0.00,VWS V14.01,2013-03-11 23:24:00,
2013-03-11 19:29:00,57.2,54.3,30.04,South,171,6.0,11.0,90,0.00,,---,0.00,VWS V14.01,2013-03-11 23:29:00,
2013-03-11 19:34:00,57.3,54.1,30.04,SSE,150,4.0,11.0,89,0.00,,---,0.00,VWS V14.01,2013-03-11 23:34:00,
2013-03-11 19:39:00,57.3,54.1,30.04,SSE,157,3.0,11.0,89,0.00,,---,0.00,VWS V14.01,2013-03-11 23:39:00,
2013-03-11 19:44:00,57.2,54.0,30.04,SSE,149,7.0,11.0,89,0.00,,---,0.00,VWS V14.01,2013-03-11 23:44:00,
2013-03-11 19:49:00,57.2,54.3,30.04,South,190,6.0,12.0,90,0.00,,---,0.00,VWS V14.01,2013-03-11 23:49:00,
2013-03-11 19:54:00,57.3,54.4,30.04,South,169,5.0,12.0,90,0.00,,---,0.00,VWS V14.01,2013-03-11 23:54:00,
2013-03-11 19:59:00,57.3,54.4,30.04,SSE,164,4.0,10.0,90,0.00,,---,0.00,VWS V14.01,2013-03-11 23:59:00,
2013-03-11 20:04:00,57.5,54.6,30.04,SSE,150,6.0,11.0,90,0.00,,---,0.00,VWS V14.01,2013-03-12 00:04:00,
2013-03-11 20:10:00,57.6,54.7,30.03,SSW,204,13.0,13.0,90,0.00,,---,0.00,VWS V14.01,2013-03-12 00:10:00,
2013-03-11 20:15:00,57.5,54.6,30.03,SE,140,10.0,14.0,90,0.00,,---,0.00,VWS V14.01,2013-03-12 00:15:00,
2013-03-11 20:20:00,57.4,54.5,30.02,SE,144,6.0,14.0,90,0.00,,---,0.00,VWS V14.01,2013-03-12 00:20:00,
2013-03-11 20:25:00,57.5,54.9,30.02,SE,141,14.0,16.0,91,0.00,,---,0.00,VWS V14.01,2013-03-12 00:25:00,
2013-03-11 20:30:00,57.7,55.1,30.02,SSW,209,16.0,18.0,91,0.00,,---,0.00,VWS V14.01,2013-03-12 00:30:00,
2013-03-11 20:35:00,57.8,55.2,30.01,East,98,13.0,19.0,91,0.00,,---,0.00,VWS V14.01,2013-03-12 00:35:00,
2013-03-11 20:40:00,57.8,55.2,30.01,SSE,164,14.0,19.0,91,0.00,,---,0.00,VWS V14.01,2013-03-12 00:40:00,
2013-03-11 20:45:00,57.8,55.2,30.02,SSW,194,12.0,19.0,91,0.00,,---,0.00,VWS V14.01,2013-03-12 00:45:00,
2013-03-11 20:50:00,57.8,55.2,30.02,South,177,11.0,19.0,91,0.00,,---,0.00,VWS V14.01,2013-03-12 00:50:00,
2013-03-11 20:56:00,57.8,55.2,30.03,SSE,168,15.0,19.0,91,0.00,,---,0.00,VWS V14.01,2013-03-12 00:56:00,
2013-03-11 21:01:00,57.8,55.2,30.03,SSW,200,15.0,18.0,91,0.00,,---,0.00,VWS V14.01,2013-03-12 01:01:00,
2013-03-11 21:06:00,57.8,55.2,30.03,SSE,161,13.0,19.0,91,0.00,,---,0.00,VWS V14.01,2013-03-12 01:06:00,
2013-03-11 21:11:00,57.8,55.2,30.03,South,174,13.0,19.0,91,0.00,,---,0.00,VWS V14.01,2013-03-12 01:11:00,
2013-03-11 21:16:00,57.7,55.1,30.02,SE,146,9.0,19.0,91,0.00,,---,0.00,VWS V14.01,2013-03-12 01:16:00,
2013-03-11 21:21:00,57.7,55.1,30.02,SSW,192,11.0,19.0,91,0.00,,---,0.00,VWS V14.01,2013-03-12 01:21:00,
2013-03-11 21:26:00,57.6,55.0,30.02,South,173,10.0,19.0,91,0.00,,---,0.00,VWS V14.01,2013-03-12 01:26:00,
2013-03-11 21:31:00,57.6,55.0,30.02,SSE,168,14.0,16.0,91,0.00,,---,0.00,VWS V14.01,2013-03-12 01:31:00,
2013-03-11 21:37:00,57.5,54.9,30.02,SSE,164,5.0,16.0,91,0.00,,---,0.00,VWS V14.01,2013-03-12 01:37:00,
2013-03-11 21:42:00,57.4,54.8,30.02,ESE,123,9.0,16.0,91,0.00,,---,0.00,VWS V14.01,2013-03-12 01:42:00,
2013-03-11 21:47:00,57.3,54.7,30.02,SSE,156,9.0,16.0,91,0.00,,---,0.00,VWS V14.01,2013-03-12 01:47:00,
2013-03-11 21:52:00,57.2,54.6,30.01,South,187,16.0,18.0,91,0.00,,---,0.00,VWS V14.01,2013-03-12 01:52:00,
2013-03-11 21:57:00,57.2,54.9,30.01,South,176,11.0,18.0,92,0.00,,---,0.00,VWS V14.01,2013-03-12 01:57:00,
2013-03-11 22:02:00,57.2,54.9,30.00,South,175,15.0,20.0,92,0.00,,---,0.00,VWS V14.01,2013-03-12 02:02:00,
2013-03-11 22:07:00,57.3,55.0,30.00,South,180,15.0,20.0,92,0.00,,---,0.00,VWS V14.01,2013-03-12 02:07:00,
2013-03-11 22:12:00,57.4,55.1,30.00,South,184,13.0,20.0,92,0.00,,---,0.00,VWS V14.01,2013-03-12 02:12:00,
2013-03-11 22:17:00,57.6,55.3,30.00,SSW,210,16.0,21.0,92,0.00,,---,0.00,VWS V14.01,2013-03-12 02:17:00,
2013-03-11 22:22:00,57.7,55.4,30.00,SSW,193,21.0,24.0,92,0.00,,---,0.00,VWS V14.01,2013-03-12 02:22:00,
2013-03-11 22:27:00,58.2,56.2,29.99,SSW,192,25.0,30.0,93,0.00,,---,0.00,VWS V14.01,2013-03-12 02:27:00,
2013-03-11 22:32:00,58.7,56.7,29.99,SSW,198,25.0,34.0,93,0.00,,---,0.00,VWS V14.01,2013-03-12 02:32:00,
2013-03-11 22:37:00,58.8,56.5,29.99,SSE,167,18.0,34.0,92,0.00,,---,0.00,VWS V14.01,2013-03-12 02:37:00,
2013-03-11 22:42:00,58.5,56.2,29.99,South,188,11.0,34.0,92,0.00,,---,0.00,VWS V14.01,2013-03-12 02:42:00,
2013-03-11 22:47:00,58.4,56.1,29.98,SSW,203,22.0,34.0,92,0.00,,---,0.00,VWS V14.01,2013-03-12 02:47:00,
2013-03-11 22:52:00,58.3,56.0,29.98,South,177,22.0,34.0,92,0.00,,---,0.00,VWS V14.01,2013-03-12 02:52:00,
2013-03-11 22:57:00,58.3,56.3,29.96,SSE,163,20.0,34.0,93,0.00,,---,0.00,VWS V14.01,2013-03-12 02:57:00,
2013-03-11 23:02:00,58.1,55.8,29.97,SSE,157,11.0,20.0,92,0.00,,---,0.00,VWS V14.01,2013-03-12 03:02:00,
2013-03-11 23:07:00,58.0,56.0,29.97,SSW,199,14.0,25.0,93,0.00,,---,0.00,VWS V14.01,2013-03-12 03:07:00,
2013-03-11 23:12:00,58.0,56.0,29.97,South,173,13.0,25.0,93,0.00,,---,0.00,VWS V14.01,2013-03-12 03:12:00,
2013-03-11 23:17:00,57.7,55.7,29.97,South,185,13.0,25.0,93,0.00,,---,0.00,VWS V14.01,2013-03-12 03:17:00,
2013-03-11 23:23:00,57.5,55.5,29.97,SSW,192,13.0,25.0,93,0.00,,---,0.00,VWS V14.01,2013-03-12 03:23:00,
2013-03-11 23:28:00,57.5,55.5,29.97,SSE,159,13.0,14.0,93,0.00,,---,0.00,VWS V14.01,2013-03-12 03:28:00,
2013-03-11 23:33:00,57.5,55.5,29.97,South,175,14.0,18.0,93,0.00,,---,0.00,VWS V14.01,2013-03-12 03:33:00,
2013-03-11 23:38:00,57.6,55.6,29.98,South,186,12.0,20.0,93,0.00,,---,0.00,VWS V14.01,2013-03-12 03:38:00,
2013-03-11 23:43:00,57.5,55.5,29.97,South,187,13.0,20.0,93,0.00,,---,0.00,VWS V14.01,2013-03-12 03:43:00,
2013-03-11 23:48:00,57.5,55.5,29.97,SSE,158,12.0,20.0,93,0.00,,---,0.00,VWS V14.01,2013-03-12 03:48:00,
2013-03-11 23:53:00,57.5,55.5,29.96,SSW,199,13.0,20.0,93,0.00,,---,0.00,VWS V14.01,2013-03-12 03:53:00,
2013-03-11 23:58:00,57.5,55.5,29.96,SSE,157,15.0,16.0,93,0.00,,---,0.00,VWS V14.01,2013-03-12 03:58:00,